Regional Weather Roundup
Issued by NWS

Home | Current Version | Previous Version | Text Only | Print | Product List | Glossary On
Versions: 1 2 3 4 5 6 7 8 9 10 11 12 13 14 15 16 17 18 19 20 21 22 23 24 25 26 27 28 29 30 31 32 33 34 35 36 37 38 39 40 41 42 43 44 45 46 47 48 49 50
000
ASUS45 KSLC 010610
RWRUT

UTAH REGIONAL WEATHER ROUNDUP
NATIONAL WEATHER SERVICE SALT LAKE CITY UT
1200 AM MDT WED OCT 01 2014

UTZ001>011-023>025-010700-

NORTHERN UTAH

CITY           SKY/WX    TMP DP  RH WIND       PRES   REMARKS
HILL AFB       MOCLDY    49  48  97 N6        29.96F
LOGAN          NOT AVBL
OGDEN          MOCLDY    50  46  86 N3        29.96S
PROVO AIRPORT  CLOUDY    52  46  82 CALM      29.96R
SALT LAKE CITY MOCLDY    52  48  86 CALM      29.94S
VERNAL         MOCLDY    46  41  82 NW3       29.94R
WENDOVER       PTCLDY    54  34  47 N16       29.99S
HEBER CITY     CLOUDY    45  45 100 CALM      29.98S
WEST JORDAN    CLOUDY    50  46  87 W5        29.96S

$$

UTZ012>022-026-027-010700-

SOUTHERN UTAH

CITY           SKY/WX    TMP DP  RH WIND       PRES   REMARKS
BRYCE CANYON   PTCLDY    41  34  76 CALM      30.03F
CEDAR CITY     MOCLDY    53  38  56 S6        29.94S
MILFORD        MOCLDY    55  47  74 N8        29.91R
MOAB/CYNLANDS  CLEAR     54  48  80 SE3       29.87F
PRICE          LGT RAIN  50  43  77 N5        29.95R
ST GEORGE      MOCLDY    64  39  39 CALM      29.84S
KANAB            N/A     50  39  66 NE3       29.97S

$$

REGIONAL REPORTS     COLORADO/ARIZONA

CITY           SKY/WX    TMP DP  RH WIND       PRES   REMARKS
CRAIG, CO      LGT RAIN  44  41  89 SE5       30.00S
GRAND JUNCTION MOCLDY    49  44  83 E6        29.93S
RIFLE          LGT RAIN  47  42  83 E6        29.98S
MONTROSE       PTCLDY    47  41  80 SE5       29.99F
CORTEZ         CLEAR     42  39  89 CALM      29.99S
PAGE, AZ       NOT AVBL
GRAND CANYON   PTCLDY    41  38  89 CALM      30.03S FOG
KINGMAN        CLEAR     61  42  49 CALM      29.88R
FLAGSTAFF      CLEAR     43  36  76 CALM      30.07F

$$

REGIONAL REPORTS    NEVADA/IDAHO/WYOMING

CITY           SKY/WX    TMP DP  RH WIND       PRES   REMARKS
LAS VEGAS, NV  CLEAR     74  34  23 S12       29.72F
ELY            MOCLDY    49  40  71 N12       30.02R
ELKO           CLEAR     42  29  59 E3        30.05S
POCATELLO, ID  PTCLDY    45  34  65 SW8       29.98S
EVANSTON, WY   PTCLDY    37  36  96 E3        30.00F
ROCK SPRINGS   CLOUDY    41  37  86 W20       29.97F

$$



USA.gov is the U.S. government's official web portal to all federal, state and local government web resources and services.